APG212 RPVE-RPLL

Flight info

Callsign APG212
Flight time 0h 37m
Altitude 26000
Route MINOR8A MINOR B473 LAIYA LAIYA7R
Aircraft A20N/M-SDE2E3FGHIRWXY/LB1

Departure

Time 2026-04-25 13:39
Airport Godofredo P. Ramos Airport (RPVE)

Arrival

Time 2026-04-25 14:17
Airport Ninoy Aquino International Airport (RPLL)
Time Latitude Longitude Altitude Speed Heading
2026-04-25 13:11 11.92665 121.96400 30 ft 0 kts 153°
2026-04-25 13:20 11.92669 121.96397 30 ft 2 kts 153°
2026-04-25 13:21 11.92682 121.96390 30 ft 2 kts 153°
2026-04-25 13:21 11.92696 121.96384 30 ft 2 kts 174°
2026-04-25 13:21 11.92711 121.96386 30 ft 2 kts 198°
2026-04-25 13:21 11.92724 121.96393 30 ft 2 kts 223°
2026-04-25 13:22 11.92732 121.96401 30 ft 0 kts 240°
2026-04-25 13:23 11.92730 121.96397 30 ft 2 kts 240°
2026-04-25 13:23 11.92710 121.96362 30 ft 8 kts 240°
2026-04-25 13:23 11.92679 121.96298 30 ft 11 kts 244°
2026-04-25 13:24 11.92647 121.96233 30 ft 8 kts 244°
2026-04-25 13:24 11.92666 121.96183 30 ft 8 kts 327°
2026-04-25 13:24 11.92712 121.96159 30 ft 0 kts 333°
2026-04-25 13:35 11.92725 121.96152 30 ft 5 kts 333°
2026-04-25 13:35 11.92782 121.96123 30 ft 10 kts 327°
2026-04-25 13:36 11.92789 121.96056 30 ft 11 kts 242°
2026-04-25 13:36 11.92751 121.95984 30 ft 12 kts 242°
2026-04-25 13:36 11.92707 121.95899 30 ft 14 kts 243°
2026-04-25 13:36 11.92661 121.95805 30 ft 15 kts 243°
2026-04-25 13:37 11.92607 121.95695 30 ft 18 kts 242°
2026-04-25 13:37 11.92541 121.95566 30 ft 22 kts 243°
2026-04-25 13:37 11.92465 121.95414 30 ft 25 kts 243°
2026-04-25 13:37 11.92376 121.95240 30 ft 28 kts 242°
2026-04-25 13:38 11.92287 121.95071 30 ft 20 kts 226°
2026-04-25 13:38 11.92235 121.95000 30 ft 10 kts 297°
2026-04-25 13:38 11.92276 121.95024 30 ft 6 kts 75°
2026-04-25 13:38 11.92303 121.95091 30 ft 28 kts 64°
2026-04-25 13:39 11.92534 121.95554 30 ft 114 kts 63°
2026-04-25 13:39 11.92989 121.96459 232 ft 162 kts 63°
2026-04-25 13:39 11.93527 121.97483 1019 ft 167 kts 63°
2026-04-25 13:39 11.94023 121.98481 2053 ft 158 kts 64°
2026-04-25 13:40 11.94526 121.99502 2639 ft 167 kts 64°
2026-04-25 13:40 11.95066 122.00595 3095 ft 183 kts 64°
2026-04-25 13:40 11.95815 122.01737 3468 ft 209 kts 43°
2026-04-25 13:40 11.97119 122.02538 3971 ft 231 kts 30°
2026-04-25 13:41 11.98644 122.03271 4515 ft 249 kts 29°
2026-04-25 13:41 12.00245 122.04047 5196 ft 260 kts 30°
2026-04-25 13:41 12.01874 122.04861 6037 ft 264 kts 30°
2026-04-25 13:41 12.03520 122.05707 6871 ft 268 kts 30°
2026-04-25 13:42 12.05198 122.06586 7667 ft 273 kts 30°
2026-04-25 13:42 12.06907 122.07489 8426 ft 279 kts 29°
2026-04-25 13:42 12.08635 122.08406 9159 ft 284 kts 28°
2026-04-25 13:42 12.10412 122.09349 9893 ft 289 kts 28°
2026-04-25 13:43 12.12229 122.10308 10532 ft 297 kts 28°
2026-04-25 13:43 12.14113 122.11304 10903 ft 314 kts 28°
2026-04-25 13:43 12.16130 122.12375 11229 ft 333 kts 28°
2026-04-25 13:43 12.18237 122.13496 11572 ft 348 kts 28°
2026-04-25 13:44 12.20406 122.14654 12149 ft 355 kts 27°
2026-04-25 13:44 12.22614 122.15834 12799 ft 359 kts 27°
2026-04-25 13:44 12.24842 122.17026 13416 ft 363 kts 27°
2026-04-25 13:44 12.27095 122.18228 14029 ft 366 kts 27°
2026-04-25 13:45 12.29364 122.19441 14553 ft 369 kts 27°
2026-04-25 13:45 12.31719 122.20549 14894 ft 373 kts 15°
2026-04-25 13:45 12.34297 122.20713 15425 ft 376 kts 350°
2026-04-25 13:45 12.36746 122.19760 16090 ft 376 kts 329°
2026-04-25 13:46 12.38909 122.18271 16649 ft 379 kts 326°
2026-04-25 13:46 12.41091 122.16741 17140 ft 383 kts 326°
2026-04-25 13:46 12.43337 122.15195 17670 ft 387 kts 326°
2026-04-25 13:46 12.45563 122.13688 18187 ft 389 kts 327°
2026-04-25 13:47 12.47871 122.12141 18706 ft 392 kts 327°
2026-04-25 13:47 12.50144 122.10625 19177 ft 396 kts 327°
2026-04-25 13:47 12.52490 122.09067 19653 ft 399 kts 327°
2026-04-25 13:47 12.54807 122.07533 20153 ft 401 kts 326°
2026-04-25 13:48 12.57163 122.05971 20593 ft 405 kts 326°
2026-04-25 13:48 12.59558 122.04382 21028 ft 408 kts 326°
2026-04-25 13:48 12.61956 122.02793 21482 ft 411 kts 326°
2026-04-25 13:48 12.64331 122.01221 22043 ft 410 kts 326°
2026-04-25 13:49 12.66741 121.99625 22648 ft 408 kts 326°
2026-04-25 13:49 12.69119 121.98051 23245 ft 406 kts 326°
2026-04-25 13:49 12.71477 121.96488 23836 ft 405 kts 326°
2026-04-25 13:49 12.73867 121.94906 24426 ft 403 kts 325°
2026-04-25 13:50 12.76212 121.93352 24929 ft 404 kts 325°
2026-04-25 13:50 12.78570 121.91788 25376 ft 406 kts 325°
2026-04-25 13:50 12.80956 121.90207 25765 ft 408 kts 325°
2026-04-25 13:50 12.83363 121.88610 25890 ft 410 kts 325°
2026-04-25 13:51 12.85773 121.87011 25898 ft 410 kts 325°
2026-04-25 13:51 12.88142 121.85438 25904 ft 410 kts 325°
2026-04-25 13:51 12.90557 121.83835 25904 ft 410 kts 325°
2026-04-25 13:51 12.92971 121.82231 25906 ft 410 kts 325°
2026-04-25 13:52 12.95344 121.80656 25907 ft 410 kts 325°
2026-04-25 13:52 12.97754 121.79054 25907 ft 410 kts 325°
2026-04-25 13:52 13.00166 121.77453 25909 ft 410 kts 325°
2026-04-25 13:52 13.02560 121.75862 25912 ft 410 kts 325°
2026-04-25 13:53 13.04966 121.74263 25917 ft 410 kts 325°
2026-04-25 13:53 13.07374 121.72662 25917 ft 410 kts 325°
2026-04-25 13:53 13.09759 121.71077 25917 ft 410 kts 325°
2026-04-25 13:53 13.12150 121.69493 25916 ft 410 kts 325°
2026-04-25 13:54 13.14568 121.67895 25918 ft 410 kts 325°
2026-04-25 13:54 13.16992 121.66290 25920 ft 410 kts 325°
2026-04-25 13:54 13.19362 121.64718 25923 ft 410 kts 324°
2026-04-25 13:54 13.21791 121.63103 25924 ft 410 kts 324°
2026-04-25 13:55 13.24159 121.61528 25925 ft 409 kts 325°
2026-04-25 13:55 13.26559 121.59930 25699 ft 409 kts 325°
2026-04-25 13:55 13.28966 121.58329 25454 ft 407 kts 325°
2026-04-25 13:55 13.31327 121.56757 25213 ft 404 kts 325°
2026-04-25 13:56 13.33701 121.55176 24968 ft 402 kts 325°
2026-04-25 13:56 13.36044 121.53612 24726 ft 400 kts 325°
2026-04-25 13:56 13.38384 121.52051 24486 ft 400 kts 325°
2026-04-25 13:56 13.40724 121.50487 24246 ft 401 kts 325°
2026-04-25 13:57 13.43067 121.48922 24007 ft 401 kts 325°
2026-04-25 13:57 13.44642 121.47869 23846 ft 402 kts 325°
2026-04-25 13:57 13.47768 121.45779 23528 ft 402 kts 325°
2026-04-25 13:57 13.50116 121.44206 23292 ft 403 kts 325°
2026-04-25 13:58 13.52463 121.42637 23056 ft 403 kts 325°
2026-04-25 13:58 13.54826 121.41058 22819 ft 404 kts 325°
2026-04-25 13:58 13.57203 121.39453 22584 ft 404 kts 324°
2026-04-25 13:58 13.59489 121.37792 22350 ft 404 kts 322°
2026-04-25 13:59 13.61783 121.36092 22117 ft 405 kts 322°
2026-04-25 13:59 13.64074 121.34386 21893 ft 405 kts 322°
2026-04-25 13:59 13.66353 121.32674 21664 ft 405 kts 322°
2026-04-25 13:59 13.68654 121.30945 21433 ft 406 kts 322°
2026-04-25 14:00 13.70916 121.29249 21203 ft 406 kts 322°
2026-04-25 14:00 13.73225 121.27522 20969 ft 404 kts 322°
2026-04-25 14:00 13.75495 121.25826 20736 ft 403 kts 322°
2026-04-25 14:00 13.77756 121.24137 20499 ft 400 kts 322°
2026-04-25 14:01 13.79997 121.22464 19955 ft 399 kts 322°
2026-04-25 14:01 13.82246 121.20781 18794 ft 400 kts 323°
2026-04-25 14:01 13.84482 121.19108 17505 ft 399 kts 323°
2026-04-25 14:01 13.86699 121.17452 16325 ft 393 kts 323°
2026-04-25 14:02 13.88892 121.15817 15159 ft 386 kts 323°
2026-04-25 14:02 13.91104 121.14291 13998 ft 380 kts 333°
2026-04-25 14:02 13.93561 121.13500 13141 ft 367 kts 353°
2026-04-25 14:02 13.95268 121.13487 12592 ft 360 kts
2026-04-25 14:03 13.98412 121.14574 11767 ft 356 kts 24°
2026-04-25 14:03 14.00765 121.15347 11241 ft 352 kts
2026-04-25 14:03 14.03153 121.15025 10778 ft 347 kts 338°
2026-04-25 14:03 14.05104 121.13637 10475 ft 338 kts 313°
2026-04-25 14:04 14.06443 121.11691 10294 ft 326 kts 300°
2026-04-25 14:04 14.07542 121.09716 10111 ft 315 kts 300°
2026-04-25 14:04 14.08639 121.07812 9929 ft 304 kts 302°
2026-04-25 14:04 14.09759 121.05980 9715 ft 296 kts 303°
2026-04-25 14:05 14.10888 121.04216 9359 ft 293 kts 304°
2026-04-25 14:05 14.12027 121.02490 8964 ft 292 kts 305°
2026-04-25 14:05 14.13186 121.00748 8571 ft 291 kts 305°
2026-04-25 14:05 14.14327 120.99033 8176 ft 291 kts 305°
2026-04-25 14:06 14.15454 120.97339 7797 ft 289 kts 305°
2026-04-25 14:06 14.16609 120.95615 7407 ft 288 kts 308°
2026-04-25 14:06 14.17999 120.94190 7212 ft 276 kts 325°
2026-04-25 14:06 14.19608 120.93150 7051 ft 265 kts 332°
2026-04-25 14:07 14.21187 120.92235 7020 ft 259 kts 332°
2026-04-25 14:07 14.22740 120.91340 6963 ft 247 kts 333°
2026-04-25 14:07 14.24201 120.90489 6972 ft 239 kts 332°
2026-04-25 14:07 14.25629 120.89565 6969 ft 240 kts 318°
2026-04-25 14:08 14.26481 120.88130 6966 ft 239 kts 283°
2026-04-25 14:08 14.26465 120.86443 6740 ft 237 kts 251°
2026-04-25 14:08 14.25721 120.84934 6369 ft 239 kts 238°
2026-04-25 14:08 14.24836 120.83457 5985 ft 242 kts 237°
2026-04-25 14:09 14.23997 120.81953 5652 ft 243 kts 248°
2026-04-25 14:09 14.23770 120.80260 5336 ft 240 kts 281°
2026-04-25 14:09 14.24445 120.78722 5054 ft 233 kts 315°
2026-04-25 14:09 14.25269 120.78056 4835 ft 228 kts 338°
2026-04-25 14:10 14.27300 120.77856 4400 ft 220 kts 17°
2026-04-25 14:10 14.28775 120.78310 4083 ft 219 kts 19°
2026-04-25 14:10 14.30249 120.78757 3759 ft 220 kts 18°
2026-04-25 14:10 14.31724 120.79200 3474 ft 218 kts 18°
2026-04-25 14:11 14.33173 120.79635 3228 ft 215 kts 18°
2026-04-25 14:11 14.34635 120.80075 3111 ft 217 kts 18°
2026-04-25 14:11 14.36074 120.80510 2996 ft 217 kts 18°
2026-04-25 14:11 14.37530 120.80951 2989 ft 217 kts 18°
2026-04-25 14:12 14.38972 120.81452 2968 ft 215 kts 32°
2026-04-25 14:12 14.40038 120.82484 2986 ft 213 kts 54°
2026-04-25 14:12 14.40841 120.83798 2985 ft 214 kts 60°
2026-04-25 14:12 14.41552 120.85123 2981 ft 209 kts 61°
2026-04-25 14:13 14.42236 120.86404 2893 ft 199 kts 61°
2026-04-25 14:13 14.42902 120.87627 2736 ft 189 kts 61°
2026-04-25 14:13 14.43543 120.88786 2487 ft 184 kts 60°
2026-04-25 14:13 14.44177 120.89925 2226 ft 176 kts 60°
2026-04-25 14:14 14.44763 120.90977 1972 ft 164 kts 60°
2026-04-25 14:14 14.45300 120.91941 1777 ft 147 kts 60°
2026-04-25 14:14 14.45790 120.92821 1563 ft 135 kts 61°
2026-04-25 14:14 14.46249 120.93648 1407 ft 134 kts 61°
2026-04-25 14:15 14.46714 120.94484 1250 ft 133 kts 61°
2026-04-25 14:15 14.46869 120.94762 1196 ft 133 kts 61°
2026-04-25 14:15 14.47638 120.96145 929 ft 133 kts 62°
2026-04-25 14:15 14.48098 120.96973 757 ft 133 kts 62°
2026-04-25 14:16 14.48555 120.97797 591 ft 132 kts 62°
2026-04-25 14:16 14.49023 120.98619 397 ft 132 kts 62°
2026-04-25 14:16 14.49483 120.99445 260 ft 133 kts 64°
2026-04-25 14:16 14.49934 121.00287 125 ft 132 kts 62°
2026-04-25 14:17 14.50388 121.01077 83 ft 119 kts 63°
2026-04-25 14:17 14.50682 121.01623 82 ft 46 kts 50°
2026-04-25 14:17 14.50848 121.01776 82 ft 16 kts 25°
2026-04-25 14:17 14.50905 121.01764 82 ft 3 kts 297°
2026-04-25 14:18 14.50903 121.01734 82 ft 4 kts 245°
2026-04-25 14:18 14.50895 121.01722 82 ft 1 kts 237°
2026-04-25 14:18 14.50888 121.01711 82 ft 2 kts 237°
2026-04-25 14:18 14.50881 121.01691 82 ft 3 kts 261°
2026-04-25 14:19 14.50893 121.01666 82 ft 5 kts 306°
2026-04-25 14:19 14.50912 121.01614 82 ft 10 kts 258°
2026-04-25 14:19 14.50879 121.01547 82 ft 9 kts 240°
2026-04-25 14:19 14.50848 121.01492 82 ft 4 kts 240°
2026-04-25 14:20 14.50837 121.01472 82 ft 0 kts 240°
2026-04-25 14:20 14.50831 121.01462 82 ft 3 kts 239°
2026-04-25 14:20 14.50841 121.01444 82 ft 4 kts 356°
2026-04-25 14:20 14.50877 121.01437 82 ft 5 kts 332°
2026-04-25 14:21 14.50908 121.01418 82 ft 4 kts 329°
2026-04-25 14:21 14.50924 121.01408 82 ft 0 kts 330°